Theta_e
352 345 343 342 339 342 347 342 340 333 333 340 342 347 349 352 351 352 355 351 349 346 344 343 344 347 349 350 350 350 351 351 352 352 353 352 355 357
352 348 345 340 340 347 349 345 340 338 334 338 344 347 345 347 351 350 350 347 345 344 343 342 342 344 346 348 348 348 348 349 350 351 351 350 349 353
352 349 346 342 343 345 347 345 342 339 334 341 342 346 347 346 346 348 349 349 348 343 342 341 341 343 345 346 346 346 346 347 348 348 349 349 349 349
350 346 343 339 339 340 342 345 343 340 337 337 344 343 345 347 348 345 345 346 347 345 342 341 341 340 340 341 341 342 341 342 343 343 345 346 348 348
351 347 345 342 344 347 347 346 347 346 340 338 340 344 346 348 349 348 346 346 346 345 340 340 340 339 338 337 336 335 333 334 335 336 338 340 344 346
350 350 349 347 347 347 347 346 347 343 341 339 340 340 344 351 349 348 347 345 345 346 347 344 343 341 339 335 335 335 330 329 329 330 331 334 338 341
343 340 339 339 339 338 340 340 341 342 341 340 338 339 340 342 341 345 342 345 346 347 349 350 351 348 344 337 341 339 333 329 328 327 327 328 330 334
338 337 335 335 335 332 333 334 338 337 336 336 337 333 339 340 341 341 341 341 341 348 347 347 351 348 346 346 341 337 334 331 329 327 327 327 328 328
336 334 333 334 333 332 330 328 329 329 336 338 334 335 335 339 338 338 339 341 342 347 347 344 349 347 352 349 337 334 333 331 329 327 326 325 325 325
335 334 333 333 332 331 328 328 327 326 329 331 333 334 334 338 338 339 338 338 342 346 348 339 348 346 352 351 336 334 332 330 328 327 325 323 320 319
331 333 333 332 329 326 324 323 323 323 322 323 324 324 324 325 330 335 336 334 334 340 344 343 345 344 346 347 348 333 330 326 325 325 324 322 318 317
330 331 328 329 324 322 323 320 318 320 320 321 322 322 322 322 324 332 331 330 334 333 345 340 343 343 341 347 348 350 345 324 321 320 321 320 316 326
326 325 324 320 318 316 316 319 317 321 319 319 319 319 320 320 321 324 329 330 329 329 338 345 342 342 341 336 342 345 348 346 338 328 315 315 314 324
320 319 319 315 313 313 315 316 315 317 319 317 317 316 316 318 321 323 326 328 332 333 339 344 338 340 338 337 334 342 343 345 341 338 335 319 313 315
314 315 314 312 312 314 315 316 316 316 315 314 315 316 318 319 322 322 324 326 327 330 336 340 338 339 340 334 332 336 338 344 344 343 339 330 325 321
311 311 312 313 312 313 313 314 315 316 315 316 316 318 320 320 320 321 320 322 322 323 331 333 337 340 336 336 338 335 340 334 343 342 342 341 332 326
308 309 307 308 308 309 310 312 312 313 312 316 312 312 315 319 319 321 321 320 319 321 323 332 334 337 339 338 334 333 337 338 339 343 338 338 339 338
306 304 304 305 305 305 305 306 307 307 308 308 309 309 310 312 313 315 319 319 318 322 324 326 330 329 333 337 337 334 337 336 339 340 340 337 334 339
304 304 304 304 303 304 304 304 303 305 307 307 306 307 308 309 311 314 314 313 314 318 321 325 326 326 323 323 334 328 336 337 336 336 338 337 335 339
305 304 303 304 304 304 304 303 304 305 305 305 305 306 306 306 307 308 309 310 312 316 319 319 323 325 325 326 328 334 317 340 337 335 336 340 340 323
304 304 304 304 305 305 305 305 305 304 304 304 305 305 306 306 306 307 308 307 310 314 315 317 321 322 326 327 325 330 337 314 328 341 341 335 332 333
304 303 305 305 304 305 305 304 304 304 304 304 304 304 305 306 305 306 307 307 309 312 314 317 319 319 321 320 320 324 330 330 317 318 319 326 334 330
303 304 304 304 303 303 302 302 302 303 303 303 302 302 303 303 304 305 307 308 309 310 312 312 314 318 317 319 319 320 325 329 324 323 325 317 319 318
Wind_Speed
7 3 3 3 3 4 4 4 2 2 2 2 2 2 3 4 8 7 9 10 12 14 14 14 16 17 20 25 26 26 25 24 23 22 21 21 22 23
5 4 4 2 3 3 3 3 4 3 4 4 3 2 3 5 7 8 8 9 11 14 15 17 18 19 22 23 24 26 24 25 22 21 20 20 19 19
6 6 7 3 3 3 3 4 5 4 6 4 4 2 4 6 6 7 8 8 7 16 18 17 17 19 19 21 22 23 23 23 23 22 19 20 21 21
5 4 7 2 5 5 4 6 6 6 6 11 5 4 7 6 6 5 6 7 8 11 14 14 13 12 15 17 18 20 21 22 22 21 23 21 22 23
5 4 6 5 6 5 5 6 5 5 6 6 7 2 4 4 4 5 5 7 7 12 13 14 14 14 15 15 15 16 18 18 18 20 21 25 28 25
4 3 4 4 6 6 5 6 5 5 6 7 6 6 5 4 5 5 5 3 4 6 9 11 8 14 15 16 18 19 18 18 19 20 20 21 23 23
4 4 4 6 8 4 2 4 6 5 4 4 6 5 5 4 4 3 5 3 4 5 4 4 4 5 6 13 13 21 18 19 20 21 21 21 21 23
4 5 5 6 3 5 4 3 2 2 5 4 4 7 8 5 2 4 4 3 3 2 2 2 4 6 6 6 15 16 19 21 22 23 23 23 23 22
4 4 6 5 6 5 5 5 4 5 2 2 4 4 5 3 4 5 5 5 5 3 2 5 4 7 7 8 16 18 19 19 19 20 20 21 22 23
4 4 5 7 6 6 4 5 5 5 4 2 4 5 6 6 6 5 4 5 6 6 5 6 3 6 4 8 15 20 22 22 21 21 21 20 20 21
1 2 3 5 8 7 3 5 6 7 5 8 7 9 10 12 9 5 5 5 4 4 5 4 3 4 3 7 7 17 21 21 21 20 21 21 20 19
4 5 4 6 9 7 4 5 7 7 7 9 8 7 7 9 12 8 7 7 7 6 6 6 4 3 4 3 4 5 7 15 18 18 18 18 13 8
2 4 4 7 8 6 7 6 8 8 11 8 8 8 8 8 8 7 9 8 8 10 6 5 5 4 4 6 3 2 5 4 6 7 14 15 17 16
2 3 5 10 10 11 10 12 14 12 8 8 8 9 8 8 9 8 9 9 9 12 10 9 6 8 7 7 8 4 6 6 5 6 5 5 13 18
3 6 11 11 10 8 10 14 13 7 8 9 10 9 9 9 10 9 10 10 11 12 11 14 11 10 9 10 9 9 5 5 7 8 6 7 6 7
8 7 8 10 9 9 9 8 7 7 8 9 9 9 9 9 9 8 9 9 7 9 10 13 13 12 11 10 10 11 8 9 4 7 8 7 7 8
8 5 6 7 8 8 8 8 8 9 9 7 6 7 9 9 8 7 8 8 8 9 9 6 9 12 11 11 10 10 9 9 9 7 6 8 9 10
3 4 6 7 7 8 9 10 8 10 10 10 9 8 8 8 9 8 7 6 7 8 8 8 5 5 5 10 16 10 9 11 9 9 9 8 9 9
5 6 5 7 8 8 7 7 9 9 10 9 9 9 8 10 10 7 7 8 9 8 7 5 5 5 8 9 5 18 10 8 9 8 9 9 11 8
5 6 7 7 7 8 7 7 8 8 8 9 9 9 9 9 10 9 8 10 10 8 7 4 6 5 7 6 4 5 17 10 8 10 9 8 5 3
5 6 7 7 6 6 8 8 9 9 9 9 9 9 10 9 10 10 10 13 13 10 9 8 5 4 4 4 5 6 5 15 9 9 7 7 5 4
6 6 7 6 7 8 9 9 9 9 9 9 9 9 9 9 10 11 10 10 9 9 8 7 5 2 3 6 9 9 6 2 2 4 1 2 5 6
6 6 7 8 7 7 8 9 10 10 10 11 10 10 10 10 11 11 10 10 10 8 9 9 7 4 6 5 9 9 12 9 2 4 6 1 3 1
Wind_Direction
269 203 201 249 262 240 217 181 211 294 289 281 290 252 254 237 249 252 243 240 230 214 205 206 224 227 231 225 219 217 219 223 217 214 215 220 221 220
276 251 231 227 244 238 267 235 221 223 262 222 246 258 239 263 255 255 246 231 225 234 226 219 219 226 228 226 220 213 214 216 218 211 207 212 221 222
273 286 289 270 284 270 232 215 237 223 252 268 246 234 258 257 270 255 247 243 244 235 237 228 221 223 217 216 215 212 210 212 213 213 212 212 214 220
294 300 289 273 259 269 265 251 232 208 224 272 279 259 239 238 256 266 268 248 240 241 238 242 237 231 218 213 213 212 211 210 209 207 212 218 227 218
282 286 288 293 294 299 293 289 287 258 216 233 273 249 283 260 240 234 242 261 250 249 239 238 227 226 223 212 211 212 208 207 206 207 206 210 220 219
304 300 305 304 302 309 309 308 288 283 266 264 263 270 267 278 274 258 255 211 266 250 241 239 223 215 216 207 212 211 213 210 207 207 206 209 209 213
325 326 316 315 326 348 296 302 303 288 279 268 279 288 285 275 273 310 269 262 253 233 257 243 227 226 221 217 221 213 207 208 210 212 210 209 211 209
300 301 303 296 315 313 320 344 358 344 318 302 289 295 301 298 281 291 287 293 291 161 204 276 201 221 225 214 222 219 211 216 218 216 214 214 214 214
266 290 307 301 318 314 323 328 340 347 256 303 325 320 310 358 305 305 294 282 274 290 238 264 204 241 211 222 214 219 224 223 222 222 219 215 218 215
261 275 273 294 292 278 298 311 315 310 298 291 265 276 283 287 270 268 263 274 274 264 233 272 198 250 233 236 207 211 220 226 226 222 221 218 214 215
312 256 263 275 268 244 255 281 291 295 279 255 257 275 276 279 261 277 255 256 269 254 192 251 258 265 218 251 234 212 215 219 223 224 221 217 214 215
325 322 307 291 299 237 240 276 289 285 297 306 304 289 281 287 277 246 264 255 243 270 213 206 238 217 274 209 252 242 228 223 219 222 226 222 200 197
307 322 336 342 327 287 261 272 260 280 285 277 280 285 290 285 279 264 251 244 250 247 226 214 244 217 232 263 246 239 223 222 218 219 220 215 185 191
346 309 304 309 308 297 294 275 272 284 287 285 285 281 276 272 275 268 259 253 249 253 266 232 243 228 236 252 250 222 225 233 226 232 204 183 194 197
336 313 308 306 303 306 300 307 306 299 293 288 286 286 281 271 275 275 272 262 257 254 247 249 244 241 237 248 258 246 241 221 217 233 200 183 176 184
338 326 316 305 302 298 311 312 312 312 306 299 293 289 289 285 277 271 278 281 273 273 239 239 238 233 238 235 243 254 237 236 194 224 228 206 192 194
326 342 340 343 346 342 331 327 325 317 316 320 331 319 310 295 280 282 277 275 262 271 270 251 230 229 233 234 235 240 245 239 233 223 198 230 219 209
15 355 354 349 344 340 331 323 317 331 327 321 311 301 301 298 294 298 296 290 288 278 274 271 258 248 238 237 219 238 236 242 244 218 213 225 240 215
20 5 351 351 344 326 313 312 315 321 312 305 301 301 298 296 301 286 288 287 281 275 267 297 301 251 247 250 249 215 231 220 235 227 215 213 239 232
11 357 351 331 320 310 312 313 311 313 307 300 296 294 289 284 284 279 279 278 272 264 262 253 268 275 269 272 300 276 208 239 216 230 217 222 244 58
355 350 332 323 310 321 322 314 308 302 298 297 294 288 284 280 277 276 276 276 268 270 256 257 232 247 283 288 258 255 253 220 245 230 214 206 215 223
353 331 319 325 331 336 328 317 314 313 309 303 295 290 287 282 276 275 272 273 272 267 272 272 278 199 265 268 277 284 287 276 190 179 342 213 181 215
329 328 340 350 338 329 326 320 319 315 312 309 306 301 297 293 287 282 269 264 265 264 262 266 268 259 266 255 263 277 278 277 209 200 218 92 208 11